K3RTA-2 Weather Reports


Display with metric or nautical units.
time (UTC)temp
F
wind
direction
speed
MPH
gust
MPH
rain 1hr
in
rain 24hr
in
rain mn
in
humidity
%
barometer
mb
20260508065504 47 135 0.0 1.0 0.00 0.12 0.09 98 1011.2
20260508064505 47 151 0.0 1.0 0.00 0.12 0.09 98 1011.3
20260508064004 46 97 0.0 1.0 0.00 0.13 0.09 98 1011.3
20260508063504 46 81 0.0 1.0 0.00 0.13 0.09 98 1011.5
20260508063005 46 77 0.0 1.0 0.00 0.13 0.09 98 1011.4
20260508062005 46 136 0.0 1.0 0.00 0.14 0.09 98 1011.3
20260508061004 46 252 0.0 1.0 0.00 0.14 0.09 98 1011.3
20260508060504 46 132 0.0 1.0 0.00 0.14 0.09 98 1011.2
20260508060005 46 264 0.0 1.0 0.00 0.14 0.09 97 1011.3
20260508055504 46 145 0.0 0.0 0.00 0.14 0.09 97 1011.2
20260508055004 46 146 0.0 1.0 0.00 0.14 0.09 97 1011.1
20260508054503 46 148 0.0 1.0 0.00 0.14 0.09 97 1011.1
20260508054004 46 162 0.0 1.0 0.00 0.14 0.09 97 1011.1
20260508053504 46 134 0.0 1.0 0.00 0.14 0.09 97 1011.2
20260508053005 46 139 0.0 1.0 0.01 0.14 0.09 97 1011.3
20260508052504 46 137 0.0 1.0 0.01 0.14 0.09 97 1011.2
20260508052004 46 122 0.0 2.0 0.01 0.14 0.09 97 1011.2
20260508051505 46 141 0.0 2.0 0.01 0.14 0.09 97 1011.2
20260508050004 46 132 0.0 1.0 0.01 0.14 0.09 97 1011.3
20260508045504 46 117 0.0 1.0 0.01 0.14 0.09 97 1011.3
20260508045004 46 117 0.0 1.0 0.01 0.14 0.09 97 1011.2
20260508044004 46 131 0.0 1.0 0.01 0.14 0.09 97 1011.2
20260508043004 46 122 0.0 0.0 0.00 0.13 0.08 97 1011.4
20260508042504 47 134 0.0 1.0 0.00 0.13 0.08 97 1011.2
20260508041504 47 148 0.0 2.0 0.00 0.13 0.08 97 1011.2
20260508041004 47 129 0.0 1.0 0.00 0.13 0.08 97 1011.2
20260508040505 47 132 0.0 1.0 0.00 0.13 0.08 97 1011.0
20260508040004 47 104 0.0 1.0 0.00 0.13 0.08 97 1010.9
20260508035503 47 131 0.0 1.0 0.00 0.13 0.08 97 1010.9
20260508035005 47 122 0.0 1.0 0.00 0.13 0.08 97 1010.9
20260508034503 47 127 0.0 1.0 0.00 0.13 0.08 97 1010.9
20260508033504 47 133 0.0 1.0 0.00 0.13 0.08 97 1010.7
20260508033004 47 127 0.0 0.0 0.00 0.13 0.08 97 1010.7
20260508032504 47 148 0.0 0.0 0.00 0.13 0.08 97 1010.8
20260508032004 48 153 0.0 0.0 0.00 0.13 0.08 97 1010.8
20260508031505 48 154 0.0 0.0 0.00 0.13 0.08 97 1010.9
20260508030005 48 162 0.0 0.0 0.00 0.13 0.08 97 1011.0
20260508025505 48 162 0.0 1.0 0.00 0.13 0.08 97 1011.0
20260508025004 48 162 0.0 1.0 0.00 0.13 0.08 97 1010.9
20260508024504 48 133 0.0 1.0 0.00 0.13 0.08 97 1010.9
20260508023504 49 128 0.0 0.0 0.00 0.13 0.08 97 1011.0
20260508023004 49 127 0.0 0.0 0.00 0.13 0.08 97 1011.0
20260508022504 49 127 0.0 0.0 0.00 0.13 0.08 97 1011.0
20260508022005 49 127 0.0 0.0 0.00 0.13 0.08 97 1011.0
20260508021505 49 127 0.0 1.0 0.00 0.13 0.08 96 1011.0
20260508021004 49 127 0.0 1.0 0.00 0.13 0.08 97 1010.9
20260508020504 49 134 0.0 0.0 0.00 0.13 0.08 97 1010.7
20260508020004 49 134 0.0 0.0 0.00 0.13 0.08 96 1010.6
20260508015504 49 134 0.0 0.0 0.00 0.13 0.08 96 1010.6
20260508014504 50 134 0.0 0.0 0.00 0.13 0.08 96 1010.5
20260508014005 50 134 0.0 1.0 0.00 0.13 0.08 96 1010.5
20260508013504 50 134 0.0 1.0 0.00 0.13 0.08 96 1010.7
20260508013004 50 134 0.0 1.0 0.00 0.13 0.08 96 1010.6
20260508012504 50 134 0.0 0.0 0.00 0.13 0.08 96 1010.5
20260508012005 50 134 0.0 1.0 0.00 0.13 0.08 96 1010.5
20260508010504 51 128 0.0 1.0 0.00 0.13 0.08 96 1010.4
20260508010004 51 128 0.0 0.0 0.00 0.13 0.08 96 1010.3
20260508005503 51 128 0.0 1.0 0.00 0.13 0.08 96 1010.2
20260508005005 51 128 0.0 1.0 0.00 0.13 0.08 95 1010.1
20260508004504 51 128 0.0 1.0 0.00 0.13 0.08 96 1010.0
20260508004003 51 143 0.0 0.0 0.00 0.13 0.08 95 1010.1
20260508003503 51 143 0.0 0.0 0.00 0.13 0.08 95 1010.0
20260508003004 51 143 0.0 0.0 0.00 0.13 0.08 95 1010.0
20260508002504 51 145 0.0 0.0 0.00 0.13 0.08 95 1010.0
20260508001004 52 146 0.0 0.0 0.00 0.13 0.08 95 1009.7
20260508000504 52 146 0.0 0.0 0.00 0.13 0.08 95 1009.5
20260508000004 52 146 0.0 0.0 0.00 0.13 0.08 95 1009.5
20260507235505 52 146 0.0 0.0 0.00 0.13 0.08 95 1009.5
20260507235004 52 146 0.0 0.0 0.00 0.13 0.08 95 1009.5
20260507234504 52 146 0.0 0.0 0.00 0.13 0.08 94 1009.5
20260507234005 52 146 0.0 0.0 0.00 0.13 0.08 94 1009.6
20260507233004 52 145 0.0 1.0 0.00 0.13 0.08 94 1009.6
20260507232504 52 146 0.0 1.0 0.00 0.13 0.08 94 1009.5
20260507232004 52 142 0.0 1.0 0.00 0.13 0.08 94 1009.3
20260507231504 52 37 0.0 0.0 0.00 0.13 0.08 94 1009.5
20260507231004 52 37 0.0 0.0 0.00 0.13 0.08 94 1009.5
20260507230504 52 37 0.0 0.0 0.00 0.13 0.08 93 1009.6
20260507230005 52 37 0.0 1.0 0.00 0.13 0.08 93 1009.7
20260507225004 53 114 0.0 0.0 0.00 0.13 0.08 93 1009.5
20260507224505 53 114 0.0 0.0 0.00 0.13 0.08 93 1009.4
20260507224005 53 114 0.0 1.0 0.00 0.13 0.08 93 1009.5
20260507223005 53 116 0.0 3.0 0.00 0.13 0.08 93 1009.7
20260507222504 53 200 0.0 3.0 0.00 0.13 0.08 94 1009.8
20260507222005 53 153 0.0 0.0 0.00 0.13 0.08 94 1009.9
20260507221504 53 148 0.0 0.0 0.01 0.13 0.08 94 1009.9
20260507221005 53 129 0.0 0.0 0.01 0.13 0.08 94 1009.6
20260507220504 53 128 0.0 0.0 0.01 0.13 0.08 94 1009.6
20260507220004 53 129 0.0 0.0 0.02 0.13 0.08 94 1009.6
20260507215005 52 129 0.0 0.0 0.03 0.13 0.08 93 1009.1
20260507214503 52 253 0.0 0.0 0.03 0.13 0.08 94 1009.6
20260507214005 52 253 0.0 1.0 0.04 0.13 0.08 93 1009.7
20260507213504 52 253 0.0 1.0 0.04 0.13 0.08 93 1010.0
20260507213005 52 134 0.0 1.0 0.04 0.13 0.08 93 1010.0
20260507212505 52 134 0.0 1.0 0.04 0.13 0.08 92 1009.8
20260507212004 52 72 0.0 1.0 0.04 0.13 0.08 91 1009.9
20260507211506 53 99 0.0 1.0 0.03 0.12 0.07 91 1009.3
20260507211005 53 107 0.0 1.0 0.04 0.12 0.07 90 1009.6
20260507210505 53 107 0.0 1.0 0.04 0.12 0.07 90 1009.6
20260507210005 53 108 0.0 0.0 0.04 0.11 0.06 90 1009.9
20260507204004 54 160 0.0 1.0 0.02 0.09 0.04 88 1009.3
20260507203004 55 208 0.0 1.0 0.03 0.09 0.04 89 1009.9
20260507202004 55 174 0.0 0.0 0.03 0.09 0.04 88 1009.5
20260507201504 55 83 0.0 0.0 0.03 0.09 0.04 88 1009.4
20260507201004 55 39 0.0 0.0 0.02 0.08 0.03 87 1009.4
20260507200504 55 32 0.0 0.0 0.02 0.08 0.03 85 1009.6
20260507200003 55 32 0.0 0.0 0.01 0.07 0.02 85 1009.6
20260507195503 55 32 0.0 0.0 0.02 0.07 0.02 84 1009.5
20260507194503 56 32 0.0 0.0 0.02 0.07 0.02 84 1009.2
20260507194003 56 31 0.0 0.0 0.02 0.07 0.02 81 1009.4
20260507193503 57 32 0.0 1.0 0.02 0.07 0.02 80 1009.4
20260507193004 56 32 0.0 3.0 0.01 0.06 0.01 77 1009.5
20260507192004 56 33 0.0 3.0 0.01 0.06 0.01 76 1010.0
20260507191504 56 20 2.0 3.0 0.01 0.06 0.01 74 1009.8
20260507191004 57 27 1.0 3.0 0.01 0.07 0.01 78 1009.5
20260507190504 57 2 2.0 5.0 0.01 0.07 0.01 76 1009.5
20260507190005 57 357 1.0 5.0 0.01 0.07 0.01 77 1009.7
20260507185504 58 16 1.0 3.0 0.00 0.06 0.00 75 1009.9
20260507185004 58 0 1.0 2.0 0.00 0.06 0.00 71 1010.0
20260507184504 58 328 0.0 2.0 0.00 0.06 0.00 69 1010.2
20260507184004 58 326 0.0 2.0 0.00 0.06 0.00 68 1010.4
20260507183504 58 349 1.0 3.0 0.00 0.06 0.00 65 1010.5
20260507183004 58 41 1.0 3.0 0.00 0.06 0.00 66 1010.3
20260507182504 58 14 1.0 3.0 0.00 0.06 0.00 65 1010.3
20260507182004 58 32 1.0 6.0 0.00 0.06 0.00 67 1010.5
20260507181005 58 16 3.0 6.0 0.00 0.06 0.00 68 1010.3
20260507180504 58 18 1.0 3.0 0.00 0.06 0.00 69 1010.3
20260507180005 58 40 2.0 3.0 0.00 0.06 0.00 68 1010.1
20260507175504 58 40 1.0 3.0 0.00 0.06 0.00 68 1010.2
20260507174505 58 35 1.0 6.0 0.00 0.06 0.00 68 1010.4
20260507174004 58 0 2.0 7.0 0.00 0.06 0.00 69 1010.4
20260507173504 58 70 3.0 7.0 0.00 0.06 0.00 68 1010.3
20260507173004 59 34 2.0 7.0 0.00 0.06 0.00 69 1010.4
20260507172504 58 46 1.0 6.0 0.00 0.06 0.00 73 1010.5
20260507172005 58 14 1.0 6.0 0.00 0.06 0.00 72 1010.6
20260507171005 58 27 1.0 3.0 0.00 0.06 0.00 74 1010.7
20260507170504 58 57 1.0 5.0 0.00 0.06 0.00 73 1010.9
20260507165505 58 41 1.0 5.0 0.00 0.06 0.00 77 1011.0
20260507165004 58 35 0.0 5.0 0.00 0.06 0.00 76 1011.2
20260507164504 58 37 0.0 6.0 0.00 0.06 0.00 77 1011.2
20260507163505 58 71 2.0 6.0 0.00 0.06 0.00 76 1011.1
20260507163004 58 69 2.0 6.0 0.00 0.06 0.00 75 1011.1
20260507162004 58 73 1.0 6.0 0.00 0.06 0.00 76 1011.4
20260507161504 58 21 2.0 6.0 0.00 0.06 0.00 75 1011.5
20260507160504 58 48 1.0 8.0 0.00 0.06 0.00 76 1011.7
20260507160004 58 56 1.0 8.0 0.00 0.06 0.00 76 1011.6
20260507155504 58 31 2.0 8.0 0.00 0.06 0.06 76 1011.7
20260507155004 58 28 3.0 8.0 0.00 0.06 0.06 75 1011.7
20260507154004 58 31 1.0 8.0 0.00 0.06 0.06 76 1011.8
20260507153504 58 55 3.0 10.0 0.00 0.06 0.06 75 1011.8
20260507153004 58 43 2.0 10.0 0.00 0.06 0.06 74 1012.0
20260507152504 58 20 3.0 10.0 0.00 0.06 0.06 74 1012.1
20260507151505 58 15 3.0 9.0 0.00 0.06 0.06 77 1011.9
20260507151004 58 49 2.0 9.0 0.00 0.06 0.06 78 1012.0
20260507150006 57 16 5.0 9.0 0.00 0.06 0.06 78 1011.8
20260507145004 57 26 3.0 7.0 0.00 0.06 0.06 80 1011.9
20260507144504 57 47 3.0 8.0 0.00 0.06 0.06 79 1012.2
20260507144004 57 44 3.0 9.0 0.00 0.06 0.06 79 1012.0
20260507143004 56 26 5.0 12.0 0.00 0.06 0.06 78 1012.1
20260507142504 56 41 3.0 12.0 0.00 0.06 0.06 77 1012.0
20260507142004 57 44 4.0 9.0 0.00 0.06 0.06 78 1012.0
20260507141504 57 15 3.0 9.0 0.00 0.06 0.06 78 1012.1
20260507141004 57 28 3.0 8.0 0.00 0.06 0.06 79 1012.2
20260507140505 56 11 2.0 8.0 0.00 0.06 0.06 80 1012.3
20260507140004 56 29 2.0 8.0 0.00 0.06 0.06 80 1012.2
20260507135504 56 0 2.0 8.0 0.00 0.06 0.06 80 1012.2
20260507135004 56 43 2.0 12.0 0.00 0.06 0.06 81 1012.2
20260507133505 56 28 4.0 10.0 0.00 0.06 0.06 81 1012.0
20260507133004 56 32 2.0 7.0 0.00 0.06 0.06 81 1012.1
20260507132505 56 36 2.0 6.0 0.00 0.06 0.06 81 1012.2
20260507132004 56 32 1.0 9.0 0.00 0.06 0.06 82 1012.1
20260507131004 56 28 3.0 9.0 0.00 0.06 0.06 82 1011.9
20260507130504 56 40 4.0 7.0 0.00 0.06 0.06 81 1011.8
20260507130004 56 26 3.0 6.0 0.00 0.06 0.06 82 1011.9
20260507124504 55 22 3.0 7.0 0.00 0.06 0.06 82 1012.0
20260507124004 55 33 1.0 6.0 0.00 0.06 0.06 84 1012.1
20260507123503 55 44 3.0 6.0 0.00 0.06 0.06 82 1012.0
20260507123003 55 42 0.0 6.0 0.00 0.06 0.06 83 1012.0
20260507122504 55 12 0.0 5.0 0.00 0.06 0.06 84 1011.9
20260507122005 55 30 2.0 5.0 0.00 0.06 0.06 83 1012.0
20260507121004 55 52 1.0 5.0 0.00 0.06 0.06 82 1012.0
20260507120504 55 33 1.0 8.0 0.00 0.06 0.06 83 1012.1
20260507120005 54 40 2.0 10.0 0.00 0.06 0.06 82 1012.1
20260507115506 54 29 5.0 10.0 0.00 0.06 0.06 82 1012.1
20260507115004 54 30 3.0 6.0 0.00 0.06 0.06 83 1012.3
20260507114504 55 353 1.0 6.0 0.00 0.06 0.06 85 1012.3
20260507113504 54 0 1.0 8.0 0.00 0.06 0.06 86 1012.1
20260507112504 54 28 1.0 6.0 0.00 0.06 0.06 87 1011.7
20260507112004 54 23 2.0 6.0 0.00 0.06 0.06 88 1011.8
20260507111504 54 15 1.0 5.0 0.00 0.06 0.06 88 1011.6
20260507111004 54 20 2.0 5.0 0.00 0.06 0.06 88 1011.5
20260507110004 54 12 2.0 7.0 0.00 0.06 0.06 89 1011.4
20260507105505 54 31 2.0 7.0 0.00 0.06 0.06 89 1011.6
20260507105004 54 19 2.0 8.0 0.00 0.06 0.06 89 1011.5
20260507104504 54 14 3.0 8.0 0.00 0.06 0.06 90 1011.4
20260507104005 54 4 2.0 8.0 0.00 0.06 0.06 90 1011.6
20260507103505 54 27 2.0 6.0 0.00 0.06 0.06 90 1011.5
20260507103004 54 21 2.0 6.0 0.00 0.06 0.06 91 1011.4
20260507102504 54 17 2.0 6.0 0.00 0.06 0.06 91 1011.4
20260507102004 54 22 1.0 5.0 0.00 0.06 0.06 91 1011.3
20260507101506 54 26 1.0 5.0 0.00 0.06 0.06 92 1011.4
20260507100505 54 36 3.0 6.0 0.00 0.06 0.06 91 1011.2
20260507100004 54 23 2.0 7.0 0.00 0.06 0.06 92 1011.2
20260507095505 54 29 2.0 9.0 0.00 0.06 0.06 92 1011.4
20260507094504 54 17 2.0 8.0 0.00 0.06 0.06 91 1011.3
20260507094004 55 19 3.0 8.0 0.00 0.06 0.06 91 1011.3
20260507093504 55 27 3.0 7.0 0.00 0.06 0.06 91 1011.2
20260507093004 55 4 3.0 9.0 0.00 0.06 0.06 91 1010.9
20260507092004 55 16 3.0 12.0 0.00 0.06 0.06 91 1010.3
20260507091504 55 26 5.0 12.0 0.00 0.06 0.06 91 1010.3
20260507091004 55 22 6.0 15.0 0.00 0.06 0.06 92 1010.6
20260507090504 56 26 6.0 15.0 0.00 0.06 0.06 92 1010.3
20260507085505 57 28 6.0 14.0 0.00 0.06 0.06 94 1010.2
20260507085005 57 2 5.0 12.0 0.00 0.06 0.06 94 1010.0
20260507084503 57 1 3.0 10.0 0.00 0.06 0.06 94 1010.2
20260507084004 57 4 2.0 13.0 0.00 0.06 0.06 94 1010.3
20260507083504 57 355 3.0 13.0 0.00 0.06 0.06 94 1010.4
20260507083005 57 2 5.0 10.0 0.00 0.06 0.06 94 1010.1
20260507082505 58 355 4.0 10.0 0.00 0.06 0.06 95 1010.1
20260507082004 58 15 3.0 13.0 0.00 0.06 0.06 95 1010.2
20260507081503 58 2 3.0 17.0 0.00 0.06 0.06 95 1010.1
20260507081004 58 353 6.0 17.0 0.00 0.06 0.06 94 1010.0
20260507080504 58 348 5.0 17.0 0.00 0.06 0.06 95 1009.9
20260507080005 59 7 3.0 12.0 0.02 0.06 0.06 95 1009.6
20260507075005 59 29 2.0 6.0 0.03 0.06 0.06 96 1008.7
20260507074505 59 349 2.0 6.0 0.03 0.06 0.06 96 1008.8
20260507074004 59 342 2.0 6.0 0.04 0.06 0.06 96 1008.6
20260507073504 59 357 3.0 6.0 0.04 0.06 0.06 95 1008.4
20260507073004 59 3 2.0 6.0 0.04 0.06 0.06 95 1008.7
20260507072505 60 1 2.0 9.0 0.05 0.06 0.06 95 1008.8
20260507072004 60 36 2.0 9.0 0.05 0.06 0.06 95 1008.5
20260507071004 62 13 5.0 12.0 0.05 0.06 0.06 94 1008.3
20260507070505 63 48 5.0 10.0 0.05 0.06 0.06 95 1008.0
20260507070009 64 24 0.0 3.0 0.03 0.04 0.04 95 1008.3